Private Wetterstation Wechselburg
Wetterdaten: Montag, 11.06.2012
Datum Zeit Temp. +2m Bodentemp. Temp.+5cm Temp. Wind Windchill X Diff Temp. Feuchte +2m Feuchte +5cm Sonnenschein Luftdruck Regen Wind Richtung Richtung Sonnenschein UV Taupunkt Windchill Windben
11.06.2012 00:00 13,6 C 20,0 C 14,8 C 13,4 C 13,0 C 0,0 C 78 % 92 % 0 % 1009,1 hPa 0,0 l/m 0,0 km/h (0 Bft) W-SW 247 0 min 0,0 UV-I 9,8 C 13,0 C 0,0 km/h (0 Bft)
11.06.2012 00:09 13,5 C 20,0 C 14,9 C 13,3 C 13,0 C 0,0 C 79 % 92 % 0 % 1008,9 hPa 0,0 l/m 0,0 km/h (0 Bft) N 0 0 min 0,0 UV-I 9,9 C 13,0 C 0,0 km/h (0 Bft)
11.06.2012 00:25 13,3 C 20,0 C 14,7 C 13,1 C 12,8 C 0,0 C 80 % 92 % 0 % 1009,1 hPa 0,0 l/m 0,0 km/h (0 Bft) S-SW 202 0 min 0,0 UV-I 9,9 C 12,8 C 0,0 km/h (0 Bft)
11.06.2012 00:30 13,3 C 20,0 C 14,6 C 13,1 C 12,8 C 0,0 C 80 % 92 % 0 % 1009,1 hPa 0,0 l/m 0,0 km/h (0 Bft) S-SW 202 0 min 0,0 UV-I 9,9 C 12,8 C 0,0 km/h (0 Bft)
11.06.2012 00:35 13,2 C 20,0 C 14,7 C 13,0 C 12,7 C 0,0 C 80 % 92 % 0 % 1009,1 hPa 0,0 l/m 0,0 km/h (0 Bft) S-SW 202 0 min 0,0 UV-I 9,8 C 12,7 C 0,0 km/h (0 Bft)
11.06.2012 00:40 13,3 C 20,0 C 14,7 C 13,0 C 12,5 C 0,0 C 80 % 92 % 0 % 1009,1 hPa 0,0 l/m 0,0 km/h (0 Bft) S-SW 202 0 min 0,0 UV-I 9,9 C 12,5 C 0,0 km/h (0 Bft)
11.06.2012 00:45 13,1 C 20,0 C 14,6 C 12,8 C 12,3 C 0,0 C 80 % 92 % 0 % 1009,0 hPa 0,0 l/m 0,0 km/h (0 Bft) SW 225 0 min 0,0 UV-I 9,7 C 12,3 C 0,0 km/h (0 Bft)
11.06.2012 00:50 13,0 C 20,0 C 14,6 C 12,8 C 12,3 C 0,0 C 80 % 92 % 0 % 1009,0 hPa 0,0 l/m 0,0 km/h (0 Bft) W-SW 247 0 min 0,0 UV-I 9,6 C 12,3 C 0,0 km/h (0 Bft)
11.06.2012 00:55 13,0 C 20,0 C 14,5 C 12,7 C 12,2 C 0,0 C 81 % 92 % 0 % 1009,0 hPa 0,0 l/m 0,0 km/h (0 Bft) W-SW 247 0 min 0,0 UV-I 9,8 C 12,2 C 0,0 km/h (0 Bft)
11.06.2012 01:00 12,9 C 20,0 C 14,5 C 12,7 C 12,2 C 0,0 C 81 % 92 % 0 % 1009,0 hPa 0,0 l/m 0,0 km/h (0 Bft) W-SW 247 0 min 0,0 UV-I 9,7 C 12,2 C 0,0 km/h (0 Bft)
11.06.2012 01:08 12,9 C 20,0 C 14,5 C 12,6 C 12,1 C 0,0 C 82 % 92 % 0 % 1008,8 hPa 0,0 l/m 0,0 km/h (0 Bft) N 0 0 min 0,0 UV-I 9,9 C 12,1 C 0,0 km/h (0 Bft)
11.06.2012 01:25 12,7 C 20,0 C 14,5 C 12,5 C 12,2 C 0,0 C 83 % 92 % 0 % 1008,4 hPa 0,0 l/m 0,0 km/h (0 Bft) W-SW 247 0 min 0,0 UV-I 9,9 C 12,2 C 0,0 km/h (0 Bft)
11.06.2012 01:30 12,6 C 20,0 C 14,5 C 12,5 C 12,3 C 0,0 C 83 % 92 % 0 % 1008,4 hPa 0,0 l/m 0,0 km/h (0 Bft) W-SW 247 0 min 0,0 UV-I 9,8 C 12,3 C 0,0 km/h (0 Bft)
11.06.2012 01:35 12,5 C 20,0 C 14,4 C 12,4 C 12,3 C 0,0 C 83 % 92 % 0 % 1008,4 hPa 0,0 l/m 0,0 km/h (0 Bft) W-SW 247 0 min 0,0 UV-I 9,7 C 12,3 C 0,0 km/h (0 Bft)
11.06.2012 01:40 12,5 C 20,0 C 14,4 C 12,4 C 12,3 C 0,0 C 84 % 92 % 0 % 1008,4 hPa 0,0 l/m 0,0 km/h (0 Bft) S-SO 157 0 min 0,0 UV-I 9,9 C 12,3 C 0,0 km/h (0 Bft)
11.06.2012 01:45 12,5 C 20,0 C 14,4 C 12,5 C 12,4 C 0,0 C 84 % 92 % 0 % 1008,7 hPa 0,0 l/m 0,0 km/h (0 Bft) SO 135 0 min 0,0 UV-I 9,9 C 12,4 C 0,0 km/h (0 Bft)
11.06.2012 01:50 12,5 C 20,0 C 14,4 C 12,5 C 12,4 C 0,0 C 84 % 92 % 0 % 1008,7 hPa 0,0 l/m 0,0 km/h (0 Bft) S-SW 202 0 min 0,0 UV-I 9,9 C 12,4 C 0,0 km/h (0 Bft)
11.06.2012 01:55 12,4 C 20,0 C 14,4 C 12,4 C 12,3 C 0,0 C 84 % 92 % 0 % 1008,7 hPa 0,0 l/m 0,0 km/h (0 Bft) S-SW 202 0 min 0,0 UV-I 9,8 C 12,3 C 0,0 km/h (0 Bft)
11.06.2012 02:00 12,4 C 20,0 C 14,4 C 12,3 C 12,2 C 0,0 C 84 % 92 % 0 % 1008,7 hPa 0,0 l/m 0,0 km/h (0 Bft) W-SW 247 0 min 0,0 UV-I 9,8 C 12,2 C 0,0 km/h (0 Bft)
11.06.2012 02:11 12,3 C 20,0 C 14,2 C 12,2 C 11,9 C 0,0 C 84 % 92 % 0 % 1008,3 hPa 0,0 l/m 0,0 km/h (0 Bft) N 0 0 min 0,0 UV-I 9,7 C 11,9 C 0,0 km/h (0 Bft)
11.06.2012 02:35 12,0 C 20,0 C 14,3 C 11,9 C 11,8 C 0,0 C 84 % 93 % 0 % 1008,2 hPa 0,0 l/m 0,2 km/h (0 Bft) W-SW 247 0 min 0,0 UV-I 9,4 C 11,8 C 1,9 km/h (1 Bft)
11.06.2012 02:40 12,1 C 20,0 C 14,2 C 12,0 C 11,9 C 0,0 C 84 % 93 % 0 % 1008,2 hPa 0,0 l/m 0,3 km/h (0 Bft) W-SW 247 0 min 0,0 UV-I 9,5 C 11,9 C 0,0 km/h (0 Bft)
11.06.2012 02:45 12,1 C 20,0 C 14,1 C 12,0 C 11,9 C 0,0 C 85 % 93 % 0 % 1008,1 hPa 0,0 l/m 0,2 km/h (0 Bft) W-SW 247 0 min 0,0 UV-I 9,7 C 11,9 C 0,0 km/h (0 Bft)
11.06.2012 02:50 12,0 C 20,0 C 14,1 C 12,0 C 11,9 C 0,0 C 85 % 93 % 0 % 1008,1 hPa 0,0 l/m 0,0 km/h (0 Bft) SO 135 0 min 0,0 UV-I 9,6 C 11,9 C 0,0 km/h (0 Bft)
11.06.2012 02:55 12,0 C 20,0 C 14,1 C 12,0 C 12,0 C 0,0 C 85 % 93 % 0 % 1008,1 hPa 0,0 l/m 0,0 km/h (0 Bft) W-SW 247 0 min 0,0 UV-I 9,6 C 12,0 C 0,0 km/h (0 Bft)
11.06.2012 03:00 12,0 C 20,0 C 14,1 C 12,0 C 12,0 C 0,0 C 86 % 93 % 0 % 1008,1 hPa 0,0 l/m 0,0 km/h (0 Bft) S-SO 157 0 min 0,0 UV-I 9,7 C 12,0 C 0,0 km/h (0 Bft)
11.06.2012 03:11 12,0 C 20,0 C 14,0 C 12,2 C 12,2 C 0,2 C 86 % 93 % 0 % 1008,0 hPa 0,0 l/m 0,0 km/h (0 Bft) N 0 0 min 0,0 UV-I 9,7 C 12,2 C 0,0 km/h (0 Bft)
11.06.2012 03:35 11,9 C 20,0 C 14,0 C 12,0 C 12,0 C 0,1 C 86 % 93 % 0 % 1007,9 hPa 0,0 l/m 0,0 km/h (0 Bft) W-SW 247 0 min 0,0 UV-I 9,6 C 12,0 C 0,0 km/h (0 Bft)
11.06.2012 03:40 11,9 C 20,0 C 14,0 C 12,0 C 12,0 C 0,1 C 86 % 93 % 0 % 1007,9 hPa 0,0 l/m 0,0 km/h (0 Bft) W-SW 247 0 min 0,0 UV-I 9,6 C 12,0 C 0,0 km/h (0 Bft)
11.06.2012 03:45 11,9 C 20,0 C 14,0 C 11,9 C 11,9 C 0,0 C 86 % 93 % 0 % 1007,6 hPa 0,0 l/m 0,0 km/h (0 Bft) W-SW 247 0 min 0,0 UV-I 9,6 C 11,9 C 0,0 km/h (0 Bft)
11.06.2012 03:50 11,9 C 20,0 C 14,0 C 12,0 C 12,0 C 0,1 C 86 % 93 % 0 % 1007,6 hPa 0,0 l/m 0,0 km/h (0 Bft) W-SW 247 0 min 0,0 UV-I 9,6 C 12,0 C 0,0 km/h (0 Bft)
11.06.2012 03:55 11,9 C 20,0 C 14,1 C 12,0 C 12,0 C 0,1 C 86 % 93 % 0 % 1007,6 hPa 0,0 l/m 0,0 km/h (0 Bft) W-SW 247 0 min 0,0 UV-I 9,6 C 12,0 C 0,0 km/h (0 Bft)
11.06.2012 04:00 11,9 C 20,0 C 14,1 C 12,0 C 12,0 C 0,1 C 87 % 93 % 0 % 1007,6 hPa 0,0 l/m 0,0 km/h (0 Bft) W-SW 247 0 min 0,0 UV-I 9,8 C 12,0 C 0,0 km/h (0 Bft)
11.06.2012 04:12 11,9 C 20,0 C 14,0 C 12,1 C 12,1 C 0,2 C 87 % 93 % 0 % 1007,8 hPa 0,0 l/m 0,0 km/h (0 Bft) N 0 0 min 0,0 UV-I 9,8 C 12,1 C 0,0 km/h (0 Bft)
11.06.2012 04:34 11,9 C 20,0 C 14,0 C 12,1 C 12,1 C 0,2 C 87 % 93 % 0 % 1007,6 hPa 0,0 l/m 0,0 km/h (0 Bft) W-SW 247 0 min 0,0 UV-I 9,8 C 12,1 C 0,0 km/h (0 Bft)
11.06.2012 04:35 11,9 C 20,0 C 14,0 C 12,1 C 12,1 C 0,2 C 87 % 93 % 0 % 1007,6 hPa 0,0 l/m 0,0 km/h (0 Bft) W-SW 247 0 min 0,0 UV-I 9,8 C 12,1 C 0,0 km/h (0 Bft)
11.06.2012 04:36 11,9 C 20,0 C 14,0 C 12,1 C 12,1 C 0,2 C 87 % 93 % 0 % 1007,6 hPa 0,0 l/m 0,0 km/h (0 Bft) W-SW 247 0 min 0,0 UV-I 9,8 C 12,1 C 0,0 km/h (0 Bft)
11.06.2012 04:37 11,9 C 20,0 C 14,0 C 12,1 C 12,1 C 0,2 C 87 % 93 % 0 % 1007,6 hPa 0,0 l/m 0,3 km/h (0 Bft) W-SW 247 0 min 0,0 UV-I 9,8 C 12,1 C 0,0 km/h (0 Bft)
11.06.2012 04:38 11,9 C 20,0 C 14,0 C 12,1 C 12,1 C 0,2 C 87 % 93 % 0 % 1007,6 hPa 0,0 l/m 0,3 km/h (0 Bft) W-SW 247 0 min 0,0 UV-I 9,8 C 12,1 C 0,0 km/h (0 Bft)
11.06.2012 04:41 11,8 C 20,0 C 14,1 C 12,1 C 12,1 C 0,3 C 87 % 93 % 0 % 1007,8 hPa 0,0 l/m 0,3 km/h (0 Bft) W-SW 247 0 min 0,0 UV-I 9,7 C 12,1 C 0,0 km/h (0 Bft)
11.06.2012 04:45 11,8 C 20,0 C 14,1 C 12,1 C 12,1 C 0,3 C 87 % 93 % 0 % 1007,8 hPa 0,0 l/m 0,3 km/h (0 Bft) W-SW 247 0 min 0,0 UV-I 9,7 C 12,1 C 2,4 km/h (1 Bft)
11.06.2012 04:50 11,9 C 20,0 C 14,1 C 12,1 C 12,1 C 0,2 C 87 % 93 % 0 % 1007,8 hPa 0,0 l/m 0,0 km/h (0 Bft) W-SW 247 0 min 0,0 UV-I 9,8 C 12,1 C 0,0 km/h (0 Bft)
11.06.2012 04:55 11,9 C 20,0 C 14,0 C 12,1 C 12,1 C 0,2 C 87 % 93 % 0 % 1007,8 hPa 0,0 l/m 0,0 km/h (0 Bft) W-SW 247 0 min 0,0 UV-I 9,8 C 12,1 C 0,0 km/h (0 Bft)
11.06.2012 05:00 11,9 C 20,0 C 14,0 C 12,1 C 12,1 C 0,2 C 87 % 93 % 0 % 1007,8 hPa 0,0 l/m 0,0 km/h (0 Bft) W-SW 247 0 min 0,0 UV-I 9,8 C 12,1 C 0,0 km/h (0 Bft)
11.06.2012 05:11 11,9 C 20,0 C 14,0 C 12,1 C 12,1 C 0,2 C 87 % 93 % 5 % 1007,9 hPa 0,0 l/m 0,2 km/h (0 Bft) N 0 0 min 0,0 UV-I 9,8 C 12,1 C 0,0 km/h (0 Bft)
11.06.2012 05:20 11,9 C 20,0 C 14,0 C 12,1 C 12,1 C 0,2 C 87 % 93 % 5 % 1007,9 hPa 0,0 l/m 0,2 km/h (0 Bft) SW 225 0 min 0,0 UV-I 9,8 C 12,1 C 0,0 km/h (0 Bft)
11.06.2012 05:25 11,9 C 20,0 C 14,0 C 12,1 C 12,1 C 0,2 C 87 % 93 % 5 % 1007,8 hPa 0,0 l/m 0,0 km/h (0 Bft) SW 225 0 min 0,0 UV-I 9,8 C 12,1 C 0,0 km/h (0 Bft)
11.06.2012 05:30 11,9 C 20,0 C 14,0 C 12,1 C 12,1 C 0,2 C 87 % 93 % 5 % 1007,8 hPa 0,0 l/m 0,0 km/h (0 Bft) SW 225 0 min 0,0 UV-I 9,8 C 12,1 C 0,0 km/h (0 Bft)
11.06.2012 05:35 11,9 C 20,0 C 13,9 C 12,1 C 12,1 C 0,2 C 87 % 93 % 5 % 1007,8 hPa 0,0 l/m 0,0 km/h (0 Bft) SW 225 0 min 0,0 UV-I 9,8 C 12,1 C 0,0 km/h (0 Bft)
11.06.2012 05:40 11,9 C 20,0 C 13,9 C 12,1 C 12,1 C 0,2 C 88 % 94 % 5 % 1007,8 hPa 0,0 l/m 0,0 km/h (0 Bft) W 270 0 min 0,0 UV-I 10,0 C 12,1 C 0,0 km/h (0 Bft)
11.06.2012 05:45 11,9 C 20,0 C 14,0 C 12,1 C 12,1 C 0,2 C 88 % 94 % 5 % 1007,8 hPa 0,0 l/m 0,0 km/h (0 Bft) S 180 0 min 0,0 UV-I 10,0 C 12,1 C 0,0 km/h (0 Bft)
11.06.2012 05:50 11,9 C 20,0 C 14,0 C 12,2 C 12,2 C 0,3 C 88 % 94 % 8 % 1007,8 hPa 0,0 l/m 0,0 km/h (0 Bft) S 180 0 min 0,0 UV-I 10,0 C 12,2 C 0,0 km/h (0 Bft)
11.06.2012 05:55 12,0 C 20,0 C 14,0 C 12,3 C 12,3 C 0,3 C 88 % 94 % 8 % 1007,8 hPa 0,0 l/m 0,0 km/h (0 Bft) S 180 0 min 0,0 UV-I 10,1 C 12,3 C 0,0 km/h (0 Bft)
11.06.2012 06:00 12,0 C 20,0 C 14,1 C 12,3 C 12,3 C 0,3 C 88 % 94 % 8 % 1007,8 hPa 0,0 l/m 0,0 km/h (0 Bft) S 180 0 min 0,0 UV-I 10,1 C 12,3 C 0,0 km/h (0 Bft)
11.06.2012 06:11 12,0 C 20,0 C 14,1 C 12,3 C 12,3 C 0,3 C 88 % 94 % 8 % 1007,6 hPa 0,0 l/m 0,5 km/h (0 Bft) N 0 0 min 0,0 UV-I 10,1 C 12,3 C 0,0 km/h (0 Bft)
11.06.2012 06:20 12,0 C 20,0 C 14,0 C 12,3 C 12,3 C 0,3 C 88 % 94 % 8 % 1007,6 hPa 0,0 l/m 0,3 km/h (0 Bft) O-NO 67 0 min 0,0 UV-I 10,1 C 12,3 C 2,6 km/h (1 Bft)
11.06.2012 06:25 12,1 C 20,0 C 13,9 C 12,3 C 12,3 C 0,2 C 88 % 94 % 5 % 1007,8 hPa 0,0 l/m 0,0 km/h (0 Bft) O-NO 67 0 min 0,0 UV-I 10,2 C 12,3 C 0,0 km/h (0 Bft)
11.06.2012 06:30 12,1 C 20,0 C 14,0 C 12,3 C 12,3 C 0,2 C 88 % 94 % 5 % 1007,8 hPa 0,0 l/m 0,0 km/h (0 Bft) O 90 0 min 0,0 UV-I 10,2 C 12,3 C 0,0 km/h (0 Bft)
11.06.2012 06:35 12,2 C 20,0 C 14,0 C 12,5 C 12,5 C 0,3 C 88 % 94 % 8 % 1007,8 hPa 0,0 l/m 0,0 km/h (0 Bft) O-NO 67 0 min 0,0 UV-I 10,3 C 12,5 C 0,0 km/h (0 Bft)
11.06.2012 06:40 12,3 C 20,0 C 14,1 C 12,5 C 12,5 C 0,2 C 88 % 94 % 5 % 1007,8 hPa 0,0 l/m 0,0 km/h (0 Bft) O-SO 112 0 min 0,0 UV-I 10,4 C 12,5 C 0,0 km/h (0 Bft)
11.06.2012 06:45 12,2 C 20,0 C 14,1 C 12,5 C 12,5 C 0,3 C 89 % 94 % 8 % 1007,4 hPa 0,0 l/m 0,0 km/h (0 Bft) W-SW 247 0 min 0,0 UV-I 10,4 C 12,5 C 0,0 km/h (0 Bft)
11.06.2012 06:50 12,2 C 20,0 C 14,0 C 12,5 C 12,5 C 0,3 C 89 % 94 % 8 % 1007,4 hPa 0,0 l/m 0,3 km/h (0 Bft) W-SW 247 0 min 0,0 UV-I 10,4 C 12,5 C 1,8 km/h (1 Bft)
11.06.2012 06:55 12,2 C 20,0 C 14,0 C 12,4 C 12,4 C 0,2 C 89 % 94 % 5 % 1007,4 hPa 0,0 l/m 1,0 km/h (0 Bft) W-SW 247 0 min 0,0 UV-I 10,4 C 12,4 C 0,0 km/h (0 Bft)
11.06.2012 07:00 12,3 C 20,0 C 14,1 C 12,3 C 12,3 C 0,0 C 88 % 94 % 0 % 1007,4 hPa 0,0 l/m 0,6 km/h (0 Bft) SW 225 0 min 0,0 UV-I 10,4 C 12,3 C 0,0 km/h (0 Bft)
11.06.2012 07:11 12,2 C 20,0 C 14,1 C 12,5 C 12,5 C 0,3 C 88 % 94 % 8 % 1007,3 hPa 0,0 l/m 0,0 km/h (0 Bft) N 0 0 min 0,0 UV-I 10,3 C 12,5 C 0,0 km/h (0 Bft)
11.06.2012 07:20 12,3 C 20,0 C 14,1 C 12,5 C 12,5 C 0,2 C 88 % 94 % 5 % 1007,3 hPa 0,0 l/m 0,0 km/h (0 Bft) W 270 0 min 0,0 UV-I 10,4 C 12,5 C 0,0 km/h (0 Bft)
11.06.2012 07:25 12,3 C 20,0 C 14,1 C 12,7 C 12,7 C 0,4 C 88 % 94 % 11 % 1007,1 hPa 0,0 l/m 0,0 km/h (0 Bft) W 270 0 min 0,0 UV-I 10,4 C 12,7 C 0,0 km/h (0 Bft)
11.06.2012 07:30 12,4 C 20,0 C 14,0 C 12,8 C 12,8 C 0,4 C 89 % 94 % 11 % 1007,1 hPa 0,0 l/m 0,0 km/h (0 Bft) W 270 0 min 0,0 UV-I 10,6 C 12,8 C 0,0 km/h (0 Bft)
11.06.2012 07:35 12,4 C 20,0 C 14,1 C 13,0 C 13,0 C 0,6 C 89 % 94 % 16 % 1007,1 hPa 0,0 l/m 0,0 km/h (0 Bft) W-SW 247 0 min 0,0 UV-I 10,6 C 13,0 C 0,0 km/h (0 Bft)
11.06.2012 07:40 12,4 C 20,0 C 14,1 C 13,1 C 13,1 C 0,7 C 89 % 94 % 18 % 1007,1 hPa 0,0 l/m 0,0 km/h (0 Bft) SW 225 0 min 0,0 UV-I 10,6 C 13,1 C 0,0 km/h (0 Bft)
11.06.2012 07:45 12,7 C 20,0 C 14,1 C 13,3 C 13,3 C 0,6 C 89 % 94 % 16 % 1007,3 hPa 0,0 l/m 0,0 km/h (0 Bft) SW 225 0 min 0,0 UV-I 10,9 C 13,3 C 0,0 km/h (0 Bft)
11.06.2012 07:50 12,7 C 20,0 C 14,1 C 13,5 C 13,5 C 0,8 C 89 % 94 % 21 % 1007,3 hPa 0,0 l/m 0,0 km/h (0 Bft) W-SW 247 0 min 0,0 UV-I 10,9 C 13,5 C 0,0 km/h (0 Bft)
11.06.2012 07:55 12,8 C 20,0 C 14,3 C 13,8 C 13,8 C 1,0 C 89 % 94 % 26 % 1007,3 hPa 0,0 l/m 0,0 km/h (0 Bft) W-SW 247 0 min 0,0 UV-I 11,0 C 13,8 C 0,0 km/h (0 Bft)
11.06.2012 08:00 12,8 C 20,0 C 14,3 C 14,0 C 14,0 C 1,2 C 89 % 94 % 32 % 1007,3 hPa 0,0 l/m 0,0 km/h (0 Bft) W-SW 247 0 min 0,0 UV-I 11,0 C 14,0 C 0,0 km/h (0 Bft)
11.06.2012 08:12 13,3 C 20,0 C 14,3 C 14,7 C 14,7 C 1,4 C 88 % 94 % 37 % 1007,1 hPa 0,0 l/m 0,0 km/h (0 Bft) N 0 0 min 0,0 UV-I 11,4 C 14,7 C 0,0 km/h (0 Bft)
11.06.2012 08:20 13,5 C 20,0 C 14,4 C 14,9 C 14,9 C 1,4 C 89 % 94 % 37 % 1007,1 hPa 0,0 l/m 0,0 km/h (0 Bft) SW 225 0 min 0,0 UV-I 11,7 C 14,9 C 0,0 km/h (0 Bft)
11.06.2012 08:25 13,6 C 20,0 C 14,5 C 15,3 C 15,3 C 1,7 C 88 % 94 % 45 % 1007,2 hPa 0,0 l/m 0,0 km/h (0 Bft) NW 315 0 min 0,0 UV-I 11,6 C 15,3 C 0,0 km/h (0 Bft)
11.06.2012 08:30 13,6 C 20,0 C 14,4 C 15,3 C 15,3 C 1,7 C 87 % 94 % 45 % 1007,2 hPa 0,0 l/m 0,2 km/h (0 Bft) O-NO 67 0 min 0,0 UV-I 11,5 C 15,3 C 1,6 km/h (1 Bft)
11.06.2012 08:35 13,7 C 20,0 C 14,5 C 15,3 C 15,3 C 1,6 C 86 % 94 % 42 % 1007,2 hPa 0,0 l/m 0,3 km/h (0 Bft) O-NO 67 0 min 0,0 UV-I 11,4 C 15,3 C 0,0 km/h (0 Bft)
11.06.2012 08:40 13,8 C 20,0 C 14,4 C 15,3 C 15,3 C 1,5 C 86 % 94 % 39 % 1007,2 hPa 0,0 l/m 0,3 km/h (0 Bft) O-NO 67 0 min 0,0 UV-I 11,5 C 15,3 C 0,0 km/h (0 Bft)
11.06.2012 08:45 13,8 C 20,0 C 14,4 C 15,3 C 15,3 C 1,5 C 86 % 94 % 39 % 1007,4 hPa 0,0 l/m 0,0 km/h (0 Bft) NO 45 0 min 0,0 UV-I 11,5 C 15,3 C 0,0 km/h (0 Bft)
11.06.2012 08:50 13,9 C 20,0 C 14,5 C 15,3 C 15,3 C 1,4 C 86 % 94 % 37 % 1007,4 hPa 0,0 l/m 0,5 km/h (0 Bft) O-NO 67 0 min 0,0 UV-I 11,6 C 15,3 C 1,9 km/h (1 Bft)
11.06.2012 08:55 14,0 C 20,0 C 14,5 C 15,3 C 15,3 C 1,3 C 85 % 94 % 34 % 1007,4 hPa 0,0 l/m 1,1 km/h (1 Bft) O-NO 67 0 min 0,0 UV-I 11,5 C 15,3 C 3,5 km/h (1 Bft)
11.06.2012 09:00 14,0 C 20,0 C 14,6 C 15,2 C 15,2 C 1,2 C 84 % 94 % 32 % 1007,4 hPa 0,0 l/m 1,0 km/h (0 Bft) NO 45 0 min 0,0 UV-I 11,3 C 15,2 C 0,0 km/h (0 Bft)
11.06.2012 09:12 14,3 C 20,0 C 14,7 C 15,7 C 15,7 C 1,4 C 83 % 93 % 37 % 1007,4 hPa 0,0 l/m 0,2 km/h (0 Bft) N 0 0 min 0,0 UV-I 11,5 C 15,7 C 0,0 km/h (0 Bft)
11.06.2012 09:20 14,3 C 20,0 C 14,7 C 15,8 C 15,8 C 1,5 C 83 % 93 % 39 % 1007,4 hPa 0,0 l/m 0,0 km/h (0 Bft) O-NO 67 0 min 0,0 UV-I 11,5 C 15,8 C 0,0 km/h (0 Bft)
11.06.2012 09:25 14,4 C 20,0 C 14,7 C 15,8 C 15,8 C 1,4 C 83 % 93 % 37 % 1007,4 hPa 0,0 l/m 0,0 km/h (0 Bft) O 90 0 min 0,0 UV-I 11,5 C 15,8 C 0,0 km/h (0 Bft)
11.06.2012 09:30 14,5 C 20,0 C 14,7 C 16,0 C 16,0 C 1,5 C 83 % 93 % 39 % 1007,4 hPa 0,0 l/m 0,0 km/h (0 Bft) N-NO 22 0 min 0,0 UV-I 11,6 C 16,0 C 0,0 km/h (0 Bft)
11.06.2012 09:35 14,6 C 20,0 C 14,7 C 16,3 C 16,3 C 1,7 C 83 % 93 % 45 % 1007,4 hPa 0,0 l/m 0,0 km/h (0 Bft) NO 45 0 min 0,0 UV-I 11,7 C 16,3 C 0,0 km/h (0 Bft)
11.06.2012 09:40 14,8 C 20,0 C 14,8 C 16,6 C 16,6 C 1,8 C 82 % 93 % 47 % 1007,4 hPa 0,0 l/m 0,0 km/h (0 Bft) N-NW 337 0 min 0,0 UV-I 11,8 C 16,6 C 0,0 km/h (0 Bft)
11.06.2012 09:45 14,9 C 20,0 C 14,8 C 16,9 C 16,9 C 2,0 C 81 % 93 % 53 % 1007,1 hPa 0,0 l/m 1,1 km/h (1 Bft) O-NO 67 0 min 0,0 UV-I 11,7 C 16,9 C 4,2 km/h (1 Bft)
11.06.2012 09:50 14,9 C 20,0 C 14,8 C 16,9 C 16,9 C 2,0 C 81 % 93 % 53 % 1007,1 hPa 0,0 l/m 1,9 km/h (1 Bft) O-NO 67 0 min 0,0 UV-I 11,7 C 16,9 C 2,6 km/h (1 Bft)
11.06.2012 09:55 15,1 C 20,0 C 14,9 C 17,5 C 17,5 C 2,4 C 81 % 93 % 63 % 1007,1 hPa 0,0 l/m 1,1 km/h (1 Bft) N-NO 22 0 min 0,0 UV-I 11,9 C 17,5 C 0,0 km/h (0 Bft)
11.06.2012 10:00 15,3 C 20,0 C 15,0 C 18,2 C 18,2 C 2,9 C 80 % 93 % 76 % 1007,1 hPa 0,0 l/m 0,5 km/h (0 Bft) O-NO 67 0 min 0,0 UV-I 11,9 C 18,2 C 0,0 km/h (0 Bft)
11.06.2012 10:15 16,5 C 20,0 C 15,2 C 23,1 C 23,1 C 6,6 C 79 % 93 % 100 % 1006,7 hPa 0,0 l/m 1,6 km/h (1 Bft) NW 315 15 min 0,0 UV-I 12,8 C 23,1 C 4,3 km/h (1 Bft)
11.06.2012 10:18 16,7 C 20,0 C 15,3 C 24,9 C 24,9 C 8,2 C 78 % 93 % 100 % 1006,7 hPa 0,0 l/m 1,8 km/h (1 Bft) W 270 3 min 0,0 UV-I 12,8 C 24,9 C 0,0 km/h (0 Bft)
11.06.2012 10:29 17,5 C 20,0 C 15,5 C 25,9 C 25,9 C 8,4 C 65 % 93 % 100 % 1006,8 hPa 0,0 l/m 3,1 km/h (1 Bft) O-NO 67 11 min 0,0 UV-I 10,8 C 25,9 C 6,6 km/h (2 Bft)
11.06.2012 10:30 17,5 C 20,0 C 15,5 C 25,9 C 25,9 C 8,4 C 65 % 93 % 100 % 1006,8 hPa 0,0 l/m 3,1 km/h (1 Bft) O-NO 67 1 min 0,0 UV-I 10,8 C 25,9 C 6,6 km/h (2 Bft)
11.06.2012 10:31 17,5 C 20,0 C 15,5 C 25,9 C 25,9 C 8,4 C 65 % 93 % 100 % 1006,8 hPa 0,0 l/m 3,1 km/h (1 Bft) O-NO 67 1 min 0,0 UV-I 10,8 C 25,9 C 6,6 km/h (2 Bft)
11.06.2012 10:32 17,7 C 20,0 C 15,8 C 24,2 C 24,2 C 6,5 C 62 % 93 % 100 % 1006,8 hPa 0,0 l/m 5,3 km/h (1 Bft) O-NO 67 1 min 0,0 UV-I 10,3 C 24,2 C 5,0 km/h (1 Bft)
11.06.2012 10:33 17,7 C 20,0 C 15,8 C 24,2 C 24,2 C 6,5 C 62 % 93 % 100 % 1006,8 hPa 0,0 l/m 5,3 km/h (1 Bft) O-NO 67 1 min 0,0 UV-I 10,3 C 24,2 C 9,0 km/h (2 Bft)
11.06.2012 10:36 17,7 C 20,0 C 15,8 C 24,2 C 24,2 C 6,5 C 62 % 93 % 100 % 1006,8 hPa 0,0 l/m 5,3 km/h (1 Bft) O-NO 67 3 min 0,0 UV-I 10,3 C 24,2 C 5,0 km/h (1 Bft)
11.06.2012 10:40 17,9 C 20,0 C 15,9 C 23,9 C 23,9 C 6,0 C 58 % 92 % 100 % 1006,8 hPa 0,0 l/m 6,0 km/h (2 Bft) O-NO 67 4 min 0,0 UV-I 9,5 C 23,9 C 3,7 km/h (1 Bft)
11.06.2012 10:45 18,3 C 20,0 C 16,0 C 23,9 C 23,9 C 5,6 C 61 % 92 % 100 % 1006,7 hPa 0,0 l/m 4,8 km/h (1 Bft) O-NO 67 5 min 0,0 UV-I 10,6 C 23,9 C 4,5 km/h (1 Bft)
11.06.2012 10:50 18,4 C 20,0 C 16,1 C 23,3 C 23,3 C 4,9 C 59 % 92 % 100 % 1006,7 hPa 0,0 l/m 3,9 km/h (1 Bft) O 90 5 min 0,0 UV-I 10,2 C 23,3 C 3,1 km/h (1 Bft)
11.06.2012 10:55 18,1 C 20,0 C 16,1 C 22,5 C 22,5 C 4,4 C 54 % 91 % 100 % 1006,7 hPa 0,0 l/m 5,5 km/h (1 Bft) O-SO 112 5 min 0,0 UV-I 8,6 C 22,5 C 10,5 km/h (2 Bft)
11.06.2012 11:00 18,2 C 20,0 C 16,3 C 22,6 C 22,6 C 4,4 C 56 % 91 % 100 % 1006,7 hPa 0,0 l/m 5,8 km/h (2 Bft) O 90 5 min 0,0 UV-I 9,3 C 22,6 C 6,1 km/h (2 Bft)
11.06.2012 11:11 18,1 C 20,0 C 16,5 C 21,5 C 21,5 C 3,4 C 56 % 89 % 89 % 1006,6 hPa 0,0 l/m 5,5 km/h (1 Bft) N 0 11 min 0,0 UV-I 9,2 C 21,5 C 3,2 km/h (1 Bft)
11.06.2012 11:25 18,3 C 20,0 C 16,4 C 22,7 C 22,7 C 4,4 C 57 % 88 % 100 % 1006,6 hPa 0,0 l/m 4,2 km/h (1 Bft) O-NO 67 14 min 0,0 UV-I 9,6 C 22,7 C 6,3 km/h (2 Bft)
11.06.2012 11:30 18,5 C 20,0 C 16,6 C 23,6 C 23,6 C 5,1 C 57 % 88 % 100 % 1006,6 hPa 0,0 l/m 4,5 km/h (1 Bft) NO 45 5 min 0,0 UV-I 9,8 C 23,6 C 3,7 km/h (1 Bft)
11.06.2012 11:35 18,7 C 20,0 C 16,7 C 24,1 C 24,1 C 5,4 C 58 % 87 % 100 % 1006,6 hPa 0,0 l/m 5,0 km/h (1 Bft) SO 135 5 min 0,0 UV-I 10,3 C 24,1 C 10,6 km/h (2 Bft)
11.06.2012 11:40 18,9 C 20,0 C 16,8 C 24,3 C 24,3 C 5,4 C 56 % 88 % 100 % 1006,6 hPa 0,0 l/m 4,7 km/h (1 Bft) O-NO 67 5 min 0,0 UV-I 9,9 C 24,3 C 7,6 km/h (2 Bft)
11.06.2012 11:45 18,7 C 20,0 C 16,7 C 23,3 C 23,3 C 4,6 C 55 % 87 % 100 % 1006,2 hPa 0,0 l/m 4,8 km/h (1 Bft) O-NO 67 5 min 0,0 UV-I 9,5 C 23,3 C 11,7 km/h (2 Bft)
11.06.2012 11:50 18,8 C 20,0 C 16,7 C 23,0 C 23,0 C 4,2 C 57 % 87 % 100 % 1006,2 hPa 0,0 l/m 4,3 km/h (1 Bft) W-NW 292 5 min 0,0 UV-I 10,1 C 23,0 C 1,8 km/h (1 Bft)
11.06.2012 11:55 19,0 C 20,0 C 16,6 C 23,3 C 23,3 C 4,3 C 57 % 88 % 100 % 1006,2 hPa 0,0 l/m 2,4 km/h (1 Bft) O-NO 67 5 min 0,0 UV-I 10,3 C 23,3 C 3,2 km/h (1 Bft)
11.06.2012 12:00 18,9 C 20,0 C 16,6 C 22,7 C 22,7 C 3,8 C 54 % 87 % 100 % 1006,2 hPa 0,0 l/m 3,2 km/h (1 Bft) O-NO 67 5 min 0,0 UV-I 9,4 C 22,7 C 6,6 km/h (2 Bft)
11.06.2012 12:12 18,9 C 20,0 C 16,7 C 22,8 C 22,8 C 3,9 C 56 % 87 % 100 % 1006,9 hPa 0,0 l/m 1,6 km/h (1 Bft) N 0 12 min 0,0 UV-I 9,9 C 22,8 C 2,6 km/h (1 Bft)
11.06.2012 12:25 19,0 C 20,0 C 16,7 C 22,6 C 22,6 C 3,6 C 54 % 87 % 95 % 1006,2 hPa 0,0 l/m 3,9 km/h (1 Bft) O-NO 67 13 min 0,0 UV-I 9,5 C 22,6 C 6,8 km/h (2 Bft)
11.06.2012 12:30 18,9 C 20,0 C 16,8 C 22,3 C 22,3 C 3,4 C 55 % 87 % 89 % 1006,2 hPa 0,0 l/m 4,5 km/h (1 Bft) O-NO 67 5 min 0,0 UV-I 9,7 C 22,3 C 3,5 km/h (1 Bft)
11.06.2012 12:35 18,9 C 20,0 C 16,8 C 22,4 C 22,4 C 3,5 C 55 % 87 % 92 % 1006,2 hPa 0,0 l/m 4,0 km/h (1 Bft) N-NO 22 5 min 0,0 UV-I 9,7 C 22,4 C 0,0 km/h (0 Bft)
11.06.2012 12:40 19,1 C 20,0 C 16,7 C 22,8 C 22,8 C 3,7 C 55 % 87 % 97 % 1006,2 hPa 0,0 l/m 2,7 km/h (1 Bft) O-NO 67 5 min 0,0 UV-I 9,8 C 22,8 C 0,0 km/h (0 Bft)
11.06.2012 12:45 19,6 C 20,0 C 16,9 C 25,1 C 25,1 C 5,5 C 55 % 87 % 100 % 1005,8 hPa 0,0 l/m 2,4 km/h (1 Bft) SO 135 5 min 0,0 UV-I 10,3 C 25,1 C 2,1 km/h (1 Bft)
11.06.2012 12:50 20,3 C 20,0 C 17,1 C 26,6 C 26,6 C 6,3 C 54 % 87 % 100 % 1005,8 hPa 0,0 l/m 2,3 km/h (1 Bft) NO 45 5 min 0,0 UV-I 10,7 C 26,6 C 2,9 km/h (1 Bft)
11.06.2012 12:55 20,6 C 20,0 C 16,9 C 27,4 C 27,4 C 6,8 C 52 % 87 % 100 % 1005,8 hPa 0,0 l/m 1,6 km/h (1 Bft) O-NO 67 5 min 0,0 UV-I 10,4 C 27,4 C 2,1 km/h (1 Bft)
11.06.2012 13:00 20,4 C 20,0 C 16,9 C 25,7 C 25,7 C 5,3 C 52 % 87 % 100 % 1005,8 hPa 0,0 l/m 1,9 km/h (1 Bft) NO 45 5 min 0,0 UV-I 10,2 C 25,7 C 2,9 km/h (1 Bft)
11.06.2012 13:04 19,3 C 20,0 C 16,8 C 22,6 C 22,6 C 3,3 C 52 % 87 % 87 % 1005,9 hPa 0,0 l/m 4,2 km/h (1 Bft) O-NO 67 4 min 0,0 UV-I 9,2 C 22,6 C 4,3 km/h (1 Bft)
11.06.2012 13:09 19,2 C 20,0 C 16,8 C 22,1 C 22,1 C 2,9 C 53 % 86 % 76 % 1005,9 hPa 0,0 l/m 4,2 km/h (1 Bft) O-NO 67 0 min 0,0 UV-I 9,4 C 22,1 C 4,3 km/h (1 Bft)
11.06.2012 13:14 19,2 C 20,0 C 16,9 C 22,0 C 22,0 C 2,8 C 54 % 87 % 74 % 1005,9 hPa 0,0 l/m 3,5 km/h (1 Bft) W-SW 247 0 min 0,0 UV-I 9,7 C 22,0 C 0,0 km/h (0 Bft)
11.06.2012 13:20 19,2 C 20,0 C 16,9 C 22,0 C 22,0 C 2,8 C 54 % 87 % 74 % 1005,9 hPa 0,0 l/m 3,5 km/h (1 Bft) W-SW 247 0 min 0,0 UV-I 9,7 C 22,0 C 0,0 km/h (0 Bft)
11.06.2012 13:25 19,5 C 20,0 C 16,8 C 22,9 C 22,9 C 3,4 C 56 % 87 % 89 % 1005,6 hPa 0,0 l/m 2,6 km/h (1 Bft) O-NO 67 5 min 0,0 UV-I 10,5 C 22,9 C 3,4 km/h (1 Bft)
11.06.2012 13:35 19,2 C 20,0 C 16,9 C 22,5 C 22,5 C 3,3 C 54 % 86 % 87 % 1005,6 hPa 0,0 l/m 3,7 km/h (1 Bft) O 90 10 min 0,0 UV-I 9,7 C 22,5 C 4,8 km/h (1 Bft)
11.06.2012 13:40 19,2 C 20,0 C 16,9 C 22,6 C 22,6 C 3,4 C 55 % 86 % 89 % 1005,6 hPa 0,0 l/m 2,6 km/h (1 Bft) O-NO 67 5 min 0,0 UV-I 9,9 C 22,6 C 4,7 km/h (1 Bft)
11.06.2012 13:45 19,3 C 20,0 C 16,9 C 22,4 C 22,4 C 3,1 C 55 % 87 % 82 % 1005,4 hPa 0,0 l/m 2,4 km/h (1 Bft) O-NO 67 0 min 0,0 UV-I 10,0 C 22,4 C 4,3 km/h (1 Bft)
11.06.2012 13:50 19,3 C 20,0 C 16,8 C 22,3 C 22,3 C 3,0 C 56 % 87 % 79 % 1005,4 hPa 0,0 l/m 2,4 km/h (1 Bft) O-NO 67 0 min 0,0 UV-I 10,3 C 22,3 C 3,1 km/h (1 Bft)
11.06.2012 13:55 19,2 C 20,0 C 16,8 C 22,5 C 22,5 C 3,3 C 55 % 87 % 87 % 1005,4 hPa 0,0 l/m 2,6 km/h (1 Bft) O-NO 67 5 min 0,0 UV-I 9,9 C 22,5 C 5,8 km/h (2 Bft)
11.06.2012 14:00 19,3 C 20,0 C 16,8 C 22,8 C 22,8 C 3,5 C 58 % 87 % 92 % 1005,4 hPa 0,0 l/m 2,3 km/h (1 Bft) O 90 5 min 0,0 UV-I 10,8 C 22,8 C 3,5 km/h (1 Bft)
11.06.2012 14:04 20,0 C 20,0 C 17,1 C 25,2 C 25,2 C 5,2 C 56 % 88 % 100 % 1005,2 hPa 0,0 l/m 1,9 km/h (1 Bft) O 90 4 min 0,0 UV-I 11,0 C 25,2 C 3,7 km/h (1 Bft)
11.06.2012 14:09 19,9 C 20,0 C 17,2 C 24,7 C 24,7 C 4,8 C 54 % 86 % 100 % 1005,2 hPa 0,0 l/m 4,2 km/h (1 Bft) O 90 5 min 0,0 UV-I 10,3 C 24,7 C 5,1 km/h (1 Bft)
11.06.2012 14:14 19,7 C 20,0 C 17,2 C 24,6 C 24,6 C 4,9 C 53 % 86 % 100 % 1005,2 hPa 0,0 l/m 5,1 km/h (1 Bft) O-NO 67 5 min 0,0 UV-I 9,8 C 24,6 C 3,9 km/h (1 Bft)
11.06.2012 14:21 19,7 C 20,0 C 17,3 C 24,4 C 24,4 C 4,7 C 53 % 86 % 100 % 1005,1 hPa 0,0 l/m 4,8 km/h (1 Bft) O-NO 67 7 min 0,0 UV-I 9,8 C 24,4 C 8,9 km/h (2 Bft)
11.06.2012 14:25 19,7 C 20,0 C 17,3 C 24,4 C 24,4 C 4,7 C 53 % 86 % 100 % 1005,1 hPa 0,0 l/m 4,8 km/h (1 Bft) O-NO 67 4 min 0,0 UV-I 9,8 C 24,4 C 8,9 km/h (2 Bft)
11.06.2012 14:30 19,7 C 20,0 C 17,4 C 24,0 C 24,0 C 4,3 C 54 % 85 % 100 % 1005,1 hPa 0,0 l/m 4,5 km/h (1 Bft) O-NO 67 5 min 0,0 UV-I 10,1 C 24,0 C 4,8 km/h (1 Bft)
11.06.2012 14:35 19,8 C 20,0 C 17,3 C 23,7 C 23,7 C 3,9 C 56 % 86 % 100 % 1005,1 hPa 0,0 l/m 4,3 km/h (1 Bft) O-NO 67 5 min 0,0 UV-I 10,8 C 23,7 C 0,0 km/h (0 Bft)
11.06.2012 14:40 19,9 C 20,0 C 17,3 C 23,8 C 23,8 C 3,9 C 53 % 86 % 100 % 1005,1 hPa 0,0 l/m 3,4 km/h (1 Bft) N-NO 22 5 min 0,0 UV-I 10,0 C 23,8 C 1,9 km/h (1 Bft)
11.06.2012 14:45 19,9 C 20,0 C 17,4 C 24,4 C 24,4 C 4,5 C 52 % 84 % 100 % 1005,3 hPa 0,0 l/m 3,9 km/h (1 Bft) O-NO 67 5 min 0,0 UV-I 9,7 C 24,4 C 6,1 km/h (2 Bft)
11.06.2012 14:50 19,9 C 20,0 C 17,5 C 23,9 C 23,9 C 4,0 C 53 % 85 % 100 % 1005,3 hPa 0,0 l/m 4,5 km/h (1 Bft) O 90 5 min 0,0 UV-I 10,0 C 23,9 C 5,8 km/h (2 Bft)
11.06.2012 14:55 20,3 C 20,0 C 17,5 C 24,6 C 24,6 C 4,3 C 57 % 85 % 100 % 1005,3 hPa 0,0 l/m 3,7 km/h (1 Bft) NO 45 5 min 0,0 UV-I 11,5 C 24,6 C 8,2 km/h (2 Bft)
11.06.2012 15:00 20,3 C 20,0 C 17,5 C 25,4 C 25,4 C 5,1 C 57 % 85 % 100 % 1005,3 hPa 0,0 l/m 2,7 km/h (1 Bft) O 90 5 min 0,0 UV-I 11,5 C 25,4 C 5,8 km/h (2 Bft)
11.06.2012 15:11 20,3 C 20,0 C 17,3 C 23,8 C 23,8 C 3,5 C 57 % 86 % 92 % 1005,1 hPa 0,0 l/m 0,5 km/h (0 Bft) N 0 11 min 0,0 UV-I 11,5 C 23,8 C 0,0 km/h (0 Bft)
11.06.2012 15:20 20,2 C 20,0 C 17,2 C 23,5 C 23,5 C 3,3 C 57 % 86 % 87 % 1005,1 hPa 0,0 l/m 0,8 km/h (0 Bft) O 90 9 min 0,0 UV-I 11,4 C 23,5 C 4,5 km/h (1 Bft)
11.06.2012 15:25 19,9 C 20,0 C 17,3 C 22,5 C 22,5 C 2,6 C 56 % 87 % 68 % 1005,2 hPa 0,0 l/m 1,9 km/h (1 Bft) O-NO 67 0 min 0,0 UV-I 10,9 C 22,5 C 2,3 km/h (1 Bft)
11.06.2012 15:30 19,6 C 20,0 C 17,1 C 22,1 C 22,1 C 2,5 C 56 % 87 % 66 % 1005,2 hPa 0,0 l/m 1,9 km/h (1 Bft) O 90 0 min 0,0 UV-I 10,6 C 22,1 C 0,0 km/h (0 Bft)
11.06.2012 15:35 19,5 C 20,0 C 17,0 C 21,8 C 21,8 C 2,3 C 57 % 87 % 61 % 1005,2 hPa 0,0 l/m 0,8 km/h (0 Bft) SO 135 0 min 0,0 UV-I 10,8 C 21,8 C 0,0 km/h (0 Bft)
11.06.2012 15:40 19,5 C 20,0 C 17,1 C 21,8 C 21,8 C 2,3 C 57 % 87 % 61 % 1005,2 hPa 0,0 l/m 0,6 km/h (0 Bft) O 90 0 min 0,0 UV-I 10,8 C 21,8 C 1,9 km/h (1 Bft)
11.06.2012 15:45 19,4 C 21,2 C 16,9 C 21,9 C 21,9 C 2,5 C 58 % 87 % 66 % 1005,2 hPa 0,0 l/m 1,0 km/h (0 Bft) O-NO 67 0 min 0,0 UV-I 10,9 C 21,9 C 1,8 km/h (1 Bft)
11.06.2012 15:50 19,4 C 21,2 C 16,9 C 21,7 C 21,7 C 2,3 C 57 % 88 % 61 % 1005,2 hPa 0,0 l/m 1,6 km/h (1 Bft) NO 45 0 min 0,0 UV-I 10,7 C 21,7 C 4,2 km/h (1 Bft)
11.06.2012 15:55 19,2 C 21,2 C 16,9 C 21,3 C 21,3 C 2,1 C 58 % 88 % 55 % 1005,2 hPa 0,0 l/m 1,3 km/h (1 Bft) O-SO 112 0 min 0,0 UV-I 10,7 C 21,3 C 0,0 km/h (0 Bft)
11.06.2012 16:00 19,2 C 21,2 C 16,9 C 21,0 C 21,0 C 1,8 C 59 % 88 % 47 % 1005,2 hPa 0,0 l/m 0,8 km/h (0 Bft) O 90 0 min 0,0 UV-I 11,0 C 21,0 C 1,8 km/h (1 Bft)
11.06.2012 16:12 18,8 C 21,2 C 16,7 C 20,0 C 20,0 C 1,2 C 60 % 89 % 32 % 1004,9 hPa 0,0 l/m 0,3 km/h (0 Bft) N 0 0 min 0,0 UV-I 10,9 C 20,0 C 1,6 km/h (1 Bft)
11.06.2012 16:20 18,7 C 21,3 C 16,7 C 20,0 C 20,0 C 1,3 C 61 % 89 % 34 % 1004,9 hPa 0,0 l/m 0,5 km/h (0 Bft) NO 45 0 min 0,0 UV-I 11,0 C 20,0 C 1,8 km/h (1 Bft)
11.06.2012 16:25 18,6 C 21,3 C 16,7 C 20,1 C 20,1 C 1,5 C 61 % 89 % 39 % 1005,1 hPa 0,0 l/m 1,1 km/h (1 Bft) O-NO 67 0 min 0,0 UV-I 10,9 C 20,1 C 3,5 km/h (1 Bft)
11.06.2012 16:30 18,6 C 21,3 C 16,7 C 20,2 C 20,2 C 1,6 C 61 % 89 % 42 % 1005,1 hPa 0,0 l/m 1,4 km/h (1 Bft) NO 45 0 min 0,0 UV-I 10,9 C 20,2 C 1,9 km/h (1 Bft)
11.06.2012 16:35 18,6 C 21,3 C 16,7 C 20,3 C 20,3 C 1,7 C 61 % 89 % 45 % 1005,1 hPa 0,0 l/m 2,9 km/h (1 Bft) O-NO 67 0 min 0,0 UV-I 10,9 C 20,3 C 8,2 km/h (2 Bft)
11.06.2012 16:40 18,7 C 21,3 C 16,7 C 20,3 C 20,3 C 1,6 C 61 % 89 % 42 % 1005,1 hPa 0,0 l/m 3,7 km/h (1 Bft) NW 315 0 min 0,0 UV-I 11,0 C 20,3 C 2,3 km/h (1 Bft)
11.06.2012 16:45 18,7 C 21,3 C 16,8 C 20,5 C 20,5 C 1,8 C 62 % 89 % 47 % 1005,1 hPa 0,0 l/m 2,6 km/h (1 Bft) O-NO 67 0 min 0,0 UV-I 11,3 C 20,5 C 1,8 km/h (1 Bft)
11.06.2012 16:50 18,7 C 21,4 C 16,7 C 20,6 C 20,6 C 1,9 C 61 % 89 % 50 % 1005,1 hPa 0,0 l/m 1,8 km/h (1 Bft) O-NO 67 0 min 0,0 UV-I 11,0 C 20,6 C 3,9 km/h (1 Bft)
11.06.2012 16:55 18,6 C 21,4 C 16,7 C 20,5 C 20,5 C 1,9 C 62 % 89 % 50 % 1005,1 hPa 0,0 l/m 2,6 km/h (1 Bft) O-NO 67 0 min 0,0 UV-I 11,2 C 20,5 C 3,2 km/h (1 Bft)
11.06.2012 17:00 18,4 C 21,4 C 16,7 C 20,3 C 20,3 C 1,9 C 62 % 89 % 50 % 1005,1 hPa 0,0 l/m 2,9 km/h (1 Bft) O-NO 67 0 min 0,0 UV-I 11,0 C 20,3 C 4,2 km/h (1 Bft)
11.06.2012 17:11 18,3 C 21,4 C 16,7 C 19,6 C 19,6 C 1,3 C 63 % 89 % 34 % 1005,1 hPa 0,0 l/m 1,0 km/h (0 Bft) N 0 0 min 0,0 UV-I 11,1 C 19,6 C 2,3 km/h (1 Bft)
11.06.2012 17:20 18,2 C 21,4 C 16,5 C 19,5 C 19,5 C 1,3 C 63 % 89 % 34 % 1005,1 hPa 0,0 l/m 1,1 km/h (1 Bft) O-NO 67 0 min 0,0 UV-I 11,0 C 19,5 C 2,4 km/h (1 Bft)
11.06.2012 17:25 18,3 C 21,4 C 16,6 C 19,5 C 19,5 C 1,2 C 64 % 89 % 32 % 1005,0 hPa 0,0 l/m 1,0 km/h (0 Bft) NO 45 0 min 0,0 UV-I 11,4 C 19,5 C 1,6 km/h (1 Bft)
11.06.2012 17:30 18,2 C 21,4 C 16,5 C 19,7 C 19,7 C 1,5 C 65 % 89 % 39 % 1005,0 hPa 0,0 l/m 0,5 km/h (0 Bft) O-NO 67 0 min 0,0 UV-I 11,5 C 19,7 C 0,0 km/h (0 Bft)
11.06.2012 17:35 18,5 C 21,4 C 16,5 C 20,1 C 20,1 C 1,6 C 65 % 89 % 42 % 1005,0 hPa 0,0 l/m 0,0 km/h (0 Bft) O-NO 67 0 min 0,0 UV-I 11,8 C 20,1 C 0,0 km/h (0 Bft)
11.06.2012 17:40 18,4 C 21,4 C 16,5 C 20,1 C 20,1 C 1,7 C 65 % 89 % 45 % 1005,0 hPa 0,0 l/m 0,0 km/h (0 Bft) N-NO 22 0 min 0,0 UV-I 11,7 C 20,1 C 0,0 km/h (0 Bft)
11.06.2012 17:45 18,5 C 21,4 C 16,5 C 20,0 C 20,0 C 1,5 C 65 % 90 % 39 % 1005,1 hPa 0,0 l/m 0,0 km/h (0 Bft) NO 45 0 min 0,0 UV-I 11,8 C 20,0 C 0,0 km/h (0 Bft)
11.06.2012 17:50 18,5 C 21,4 C 16,4 C 19,8 C 19,8 C 1,3 C 65 % 90 % 34 % 1005,1 hPa 0,0 l/m 0,2 km/h (0 Bft) N-NO 22 0 min 0,0 UV-I 11,8 C 19,8 C 0,0 km/h (0 Bft)
11.06.2012 17:55 18,4 C 21,4 C 16,4 C 19,3 C 19,3 C 0,9 C 65 % 90 % 24 % 1005,1 hPa 0,0 l/m 0,2 km/h (0 Bft) N-NW 337 0 min 0,0 UV-I 11,7 C 19,3 C 0,0 km/h (0 Bft)
11.06.2012 18:00 18,3 C 21,4 C 16,4 C 19,0 C 19,0 C 0,7 C 66 % 90 % 18 % 1005,1 hPa 0,0 l/m 0,2 km/h (0 Bft) SW 225 0 min 0,0 UV-I 11,8 C 19,0 C 0,0 km/h (0 Bft)
11.06.2012 18:12 18,2 C 21,5 C 16,3 C 17,9 C 17,4 C 0,0 C 70 % 90 % 0 % 1005,3 hPa 0,0 l/m 0,3 km/h (0 Bft) N 0 0 min 0,0 UV-I 12,6 C 17,4 C 0,0 km/h (0 Bft)
11.06.2012 18:20 18,0 C 21,5 C 16,3 C 17,6 C 16,8 C 0,0 C 71 % 90 % 0 % 1005,3 hPa 0,0 l/m 1,3 km/h (1 Bft) W-SW 247 0 min 0,0 UV-I 12,7 C 16,8 C 4,8 km/h (1 Bft)
11.06.2012 18:25 17,5 C 21,5 C 16,0 C 16,9 C 15,7 C 0,0 C 72 % 91 % 0 % 1005,4 hPa 0,0 l/m 3,7 km/h (1 Bft) SW 225 0 min 0,0 UV-I 12,4 C 15,7 C 5,5 km/h (1 Bft)
11.06.2012 18:30 17,3 C 21,5 C 15,9 C 16,6 C 15,3 C 0,0 C 73 % 91 % 0 % 1005,4 hPa 0,0 l/m 3,9 km/h (1 Bft) SW 225 0 min 0,0 UV-I 12,4 C 15,3 C 0,0 km/h (0 Bft)
11.06.2012 18:35 16,9 C 21,7 C 15,9 C 16,3 C 15,0 C 0,0 C 75 % 91 % 0 % 1005,4 hPa 0,0 l/m 1,6 km/h (1 Bft) SW 225 0 min 0,0 UV-I 12,4 C 15,0 C 1,6 km/h (1 Bft)
11.06.2012 18:40 16,9 C 21,9 C 15,9 C 16,2 C 14,9 C 0,0 C 75 % 91 % 0 % 1005,4 hPa 0,0 l/m 0,3 km/h (0 Bft) S 180 0 min 0,0 UV-I 12,4 C 14,9 C 0,0 km/h (0 Bft)
11.06.2012 18:45 16,7 C 22,0 C 15,9 C 16,1 C 14,8 C 0,0 C 77 % 91 % 0 % 1005,6 hPa 0,0 l/m 0,0 km/h (0 Bft) S 180 0 min 0,0 UV-I 12,6 C 14,8 C 0,0 km/h (0 Bft)
11.06.2012 18:50 16,5 C 22,0 C 15,7 C 15,9 C 14,7 C 0,0 C 77 % 92 % 0 % 1005,6 hPa 0,0 l/m 0,2 km/h (0 Bft) W 270 0 min 0,0 UV-I 12,5 C 14,7 C 2,3 km/h (1 Bft)
11.06.2012 18:55 16,4 C 22,1 C 15,7 C 15,8 C 14,5 C 0,0 C 78 % 92 % 0 % 1005,6 hPa 0,0 l/m 0,3 km/h (0 Bft) W-SW 247 0 min 0,0 UV-I 12,6 C 14,5 C 1,8 km/h (1 Bft)
11.06.2012 19:00 16,2 C 22,1 C 15,6 C 15,6 C 14,4 C 0,0 C 79 % 92 % 0 % 1005,6 hPa 0,0 l/m 0,3 km/h (0 Bft) S 180 0 min 0,0 UV-I 12,6 C 14,4 C 0,0 km/h (0 Bft)
11.06.2012 19:12 15,6 C 22,1 C 15,5 C 15,2 C 14,3 C 0,0 C 81 % 92 % 0 % 1005,3 hPa 0,7 l/m 0,0 km/h (0 Bft) N 0 0 min 0,0 UV-I 12,3 C 14,3 C 0,0 km/h (0 Bft)
11.06.2012 19:20 15,5 C 22,1 C 15,4 C 15,1 C 14,3 C 0,0 C 81 % 92 % 0 % 1005,3 hPa 0,0 l/m 0,0 km/h (0 Bft) SW 225 0 min 0,0 UV-I 12,3 C 14,3 C 0,0 km/h (0 Bft)
11.06.2012 19:25 15,3 C 22,1 C 15,3 C 15,0 C 14,3 C 0,0 C 82 % 92 % 0 % 1005,3 hPa 0,0 l/m 0,0 km/h (0 Bft) S 180 0 min 0,0 UV-I 12,2 C 14,3 C 0,0 km/h (0 Bft)
11.06.2012 19:30 15,3 C 22,1 C 15,3 C 15,0 C 14,3 C 0,0 C 82 % 93 % 0 % 1005,3 hPa 0,0 l/m 0,0 km/h (0 Bft) NW 315 0 min 0,0 UV-I 12,2 C 14,3 C 0,0 km/h (0 Bft)
11.06.2012 19:35 15,1 C 22,1 C 15,3 C 14,8 C 14,2 C 0,0 C 83 % 93 % 0 % 1005,3 hPa 0,7 l/m 0,2 km/h (0 Bft) O-NO 67 0 min 0,0 UV-I 12,2 C 14,2 C 1,9 km/h (1 Bft)
11.06.2012 19:40 14,8 C 22,1 C 15,3 C 14,6 C 14,2 C 0,0 C 84 % 93 % 0 % 1005,3 hPa 0,0 l/m 0,5 km/h (0 Bft) NO 45 0 min 0,0 UV-I 12,1 C 14,2 C 0,0 km/h (0 Bft)
11.06.2012 19:45 14,7 C 22,1 C 15,3 C 14,5 C 14,2 C 0,0 C 84 % 93 % 0 % 1004,9 hPa 0,0 l/m 0,5 km/h (0 Bft) O 90 0 min 0,0 UV-I 12,0 C 14,2 C 0,0 km/h (0 Bft)
11.06.2012 19:50 14,6 C 22,1 C 15,3 C 14,5 C 14,2 C 0,0 C 85 % 93 % 0 % 1004,9 hPa 0,0 l/m 0,2 km/h (0 Bft) O-NO 67 0 min 0,0 UV-I 12,1 C 14,2 C 0,0 km/h (0 Bft)
11.06.2012 19:55 14,6 C 22,0 C 15,2 C 14,5 C 14,2 C 0,0 C 85 % 93 % 0 % 1004,9 hPa 0,0 l/m 0,2 km/h (0 Bft) O-NO 67 0 min 0,0 UV-I 12,1 C 14,2 C 0,0 km/h (0 Bft)
11.06.2012 20:00 14,5 C 22,0 C 15,1 C 14,4 C 14,2 C 0,0 C 85 % 93 % 0 % 1004,9 hPa 0,0 l/m 0,2 km/h (0 Bft) O-NO 67 0 min 0,0 UV-I 12,0 C 14,2 C 0,0 km/h (0 Bft)
11.06.2012 20:05 14,4 C 22,0 C 15,2 C 14,3 C 14,2 C 0,0 C 85 % 93 % 0 % 1004,8 hPa 0,0 l/m 0,0 km/h (0 Bft) O-SO 112 0 min 0,0 UV-I 11,9 C 14,2 C 0,0 km/h (0 Bft)
11.06.2012 20:10 14,5 C 22,1 C 15,2 C 14,4 C 14,2 C 0,0 C 85 % 93 % 0 % 1004,8 hPa 0,0 l/m 0,2 km/h (0 Bft) O 90 0 min 0,0 UV-I 12,0 C 14,2 C 1,6 km/h (1 Bft)
11.06.2012 20:15 14,3 C 22,1 C 15,2 C 14,3 C 14,2 C 0,0 C 86 % 93 % 0 % 1004,8 hPa 0,0 l/m 0,5 km/h (0 Bft) O-NO 67 0 min 0,0 UV-I 12,0 C 14,2 C 3,1 km/h (1 Bft)
11.06.2012 20:20 14,3 C 22,1 C 15,1 C 14,3 C 14,3 C 0,0 C 86 % 93 % 0 % 1004,8 hPa 0,0 l/m 1,4 km/h (1 Bft) O-NO 67 0 min 0,0 UV-I 12,0 C 14,3 C 0,0 km/h (0 Bft)
11.06.2012 20:25 14,3 C 22,1 C 15,1 C 14,4 C 14,4 C 0,1 C 86 % 93 % 3 % 1004,4 hPa 0,0 l/m 1,4 km/h (1 Bft) O-SO 112 0 min 0,0 UV-I 12,0 C 14,4 C 0,0 km/h (0 Bft)
11.06.2012 20:30 14,2 C 22,1 C 15,1 C 14,4 C 14,4 C 0,2 C 86 % 93 % 5 % 1004,4 hPa 0,0 l/m 0,5 km/h (0 Bft) N-NO 22 0 min 0,0 UV-I 11,9 C 14,4 C 0,0 km/h (0 Bft)
11.06.2012 20:35 14,3 C 22,1 C 15,2 C 14,4 C 14,4 C 0,1 C 86 % 93 % 3 % 1004,4 hPa 0,0 l/m 0,0 km/h (0 Bft) O-NO 67 0 min 0,0 UV-I 12,0 C 14,4 C 0,0 km/h (0 Bft)
11.06.2012 20:40 14,3 C 22,1 C 15,2 C 14,4 C 14,4 C 0,1 C 86 % 93 % 3 % 1004,4 hPa 0,0 l/m 0,0 km/h (0 Bft) O-NO 67 0 min 0,0 UV-I 12,0 C 14,4 C 0,0 km/h (0 Bft)
11.06.2012 20:45 14,3 C 22,1 C 15,2 C 14,4 C 14,4 C 0,1 C 86 % 93 % 3 % 1004,7 hPa 0,0 l/m 0,0 km/h (0 Bft) O-SO 112 0 min 0,0 UV-I 12,0 C 14,4 C 0,0 km/h (0 Bft)
11.06.2012 20:50 14,3 C 22,1 C 15,1 C 14,4 C 14,4 C 0,1 C 86 % 93 % 3 % 1004,7 hPa 0,0 l/m 0,0 km/h (0 Bft) NO 45 0 min 0,0 UV-I 12,0 C 14,4 C 0,0 km/h (0 Bft)
11.06.2012 20:55 14,3 C 22,1 C 15,2 C 14,3 C 14,3 C 0,0 C 86 % 93 % 0 % 1004,7 hPa 0,0 l/m 0,0 km/h (0 Bft) O-NO 67 0 min 0,0 UV-I 12,0 C 14,3 C 0,0 km/h (0 Bft)
11.06.2012 21:00 14,1 C 22,1 C 15,2 C 14,2 C 14,2 C 0,1 C 86 % 93 % 3 % 1004,7 hPa 0,0 l/m 0,0 km/h (0 Bft) O 90 0 min 0,0 UV-I 11,8 C 14,2 C 0,0 km/h (0 Bft)
11.06.2012 21:11 14,0 C 22,1 C 15,1 C 14,1 C 14,1 C 0,1 C 87 % 93 % 0 % 1004,3 hPa 0,0 l/m 0,0 km/h (0 Bft) N 0 0 min 0,0 UV-I 11,9 C 14,1 C 0,0 km/h (0 Bft)
11.06.2012 21:20 14,1 C 22,1 C 15,1 C 14,1 C 14,0 C 0,0 C 87 % 93 % 0 % 1004,3 hPa 0,0 l/m 0,0 km/h (0 Bft) NO 45 0 min 0,0 UV-I 12,0 C 14,0 C 0,0 km/h (0 Bft)
11.06.2012 21:25 14,0 C 22,1 C 15,0 C 14,0 C 14,0 C 0,0 C 87 % 93 % 0 % 1004,6 hPa 0,0 l/m 0,0 km/h (0 Bft) O-NO 67 0 min 0,0 UV-I 11,9 C 14,0 C 0,0 km/h (0 Bft)
11.06.2012 21:30 14,0 C 22,0 C 15,0 C 14,0 C 13,9 C 0,0 C 87 % 93 % 0 % 1004,6 hPa 0,0 l/m 0,0 km/h (0 Bft) O-NO 67 0 min 0,0 UV-I 11,9 C 13,9 C 0,0 km/h (0 Bft)
11.06.2012 21:35 13,9 C 22,1 C 15,0 C 13,9 C 13,9 C 0,0 C 87 % 93 % 0 % 1004,6 hPa 0,0 l/m 0,0 km/h (0 Bft) NO 45 0 min 0,0 UV-I 11,8 C 13,9 C 0,0 km/h (0 Bft)
11.06.2012 21:40 13,9 C 22,0 C 15,1 C 13,9 C 13,9 C 0,0 C 87 % 93 % 0 % 1004,6 hPa 0,0 l/m 0,0 km/h (0 Bft) NO 45 0 min 0,0 UV-I 11,8 C 13,9 C 0,0 km/h (0 Bft)
11.06.2012 21:45 13,8 C 22,0 C 15,1 C 13,9 C 13,9 C 0,1 C 87 % 93 % 0 % 1004,4 hPa 0,0 l/m 0,0 km/h (0 Bft) NO 45 0 min 0,0 UV-I 11,7 C 13,9 C 0,0 km/h (0 Bft)
11.06.2012 21:50 13,8 C 22,0 C 15,1 C 13,8 C 13,8 C 0,0 C 87 % 93 % 0 % 1004,4 hPa 0,0 l/m 0,0 km/h (0 Bft) NO 45 0 min 0,0 UV-I 11,7 C 13,8 C 0,0 km/h (0 Bft)
11.06.2012 21:55 13,8 C 22,0 C 15,0 C 13,8 C 13,8 C 0,0 C 88 % 93 % 0 % 1004,4 hPa 0,0 l/m 0,0 km/h (0 Bft) NO 45 0 min 0,0 UV-I 11,8 C 13,8 C 0,0 km/h (0 Bft)
11.06.2012 22:00 13,9 C 22,0 C 15,0 C 13,9 C 13,8 C 0,0 C 88 % 93 % 0 % 1004,4 hPa 0,7 l/m 0,0 km/h (0 Bft) NO 45 0 min 0,0 UV-I 11,9 C 13,8 C 0,0 km/h (0 Bft)
11.06.2012 22:11 13,7 C 22,0 C 14,9 C 13,8 C 13,8 C 0,1 C 88 % 93 % 0 % 1004,4 hPa 0,0 l/m 0,0 km/h (0 Bft) N 0 0 min 0,0 UV-I 11,7 C 13,8 C 0,0 km/h (0 Bft)
11.06.2012 22:25 13,6 C 22,0 C 14,9 C 13,6 C 13,6 C 0,0 C 88 % 93 % 0 % 1004,2 hPa 0,0 l/m 0,0 km/h (0 Bft) O-NO 67 0 min 0,0 UV-I 11,6 C 13,6 C 0,0 km/h (0 Bft)
11.06.2012 22:30 13,6 C 22,0 C 14,9 C 13,6 C 13,6 C 0,0 C 88 % 93 % 0 % 1004,2 hPa 0,0 l/m 0,0 km/h (0 Bft) O-NO 67 0 min 0,0 UV-I 11,6 C 13,6 C 0,0 km/h (0 Bft)
11.06.2012 22:35 13,6 C 21,9 C 14,9 C 13,6 C 13,5 C 0,0 C 88 % 93 % 0 % 1004,2 hPa 0,0 l/m 0,0 km/h (0 Bft) NO 45 0 min 0,0 UV-I 11,6 C 13,5 C 0,0 km/h (0 Bft)
11.06.2012 22:40 13,6 C 22,0 C 14,9 C 13,5 C 13,4 C 0,0 C 88 % 93 % 0 % 1004,2 hPa 0,0 l/m 0,0 km/h (0 Bft) NO 45 0 min 0,0 UV-I 11,6 C 13,4 C 0,0 km/h (0 Bft)
11.06.2012 22:45 13,5 C 21,9 C 14,8 C 13,5 C 13,4 C 0,0 C 89 % 93 % 0 % 1004,2 hPa 0,0 l/m 0,0 km/h (0 Bft) NO 45 0 min 0,0 UV-I 11,7 C 13,4 C 0,0 km/h (0 Bft)
11.06.2012 22:50 13,5 C 21,9 C 14,8 C 13,5 C 13,4 C 0,0 C 89 % 94 % 0 % 1004,2 hPa 0,0 l/m 0,0 km/h (0 Bft) O-NO 67 0 min 0,0 UV-I 11,7 C 13,4 C 0,0 km/h (0 Bft)
11.06.2012 22:55 13,4 C 21,9 C 14,9 C 13,4 C 13,4 C 0,0 C 88 % 94 % 0 % 1004,2 hPa 0,0 l/m 0,0 km/h (0 Bft) NO 45 0 min 0,0 UV-I 11,5 C 13,4 C 0,0 km/h (0 Bft)
11.06.2012 23:00 13,5 C 21,9 C 14,9 C 13,5 C 13,4 C 0,0 C 89 % 94 % 0 % 1004,2 hPa 0,0 l/m 0,0 km/h (0 Bft) NO 45 0 min 0,0 UV-I 11,7 C 13,4 C 0,0 km/h (0 Bft)
11.06.2012 23:12 13,4 C 21,9 C 14,8 C 13,4 C 13,4 C 0,0 C 88 % 94 % 0 % 1004,2 hPa 0,0 l/m 0,0 km/h (0 Bft) N 0 0 min 0,0 UV-I 11,5 C 13,4 C 0,0 km/h (0 Bft)
11.06.2012 23:25 13,3 C 21,9 C 14,8 C 13,3 C 13,3 C 0,0 C 89 % 94 % 0 % 1003,9 hPa 0,0 l/m 0,0 km/h (0 Bft) N-NO 22 0 min 0,0 UV-I 11,5 C 13,3 C 0,0 km/h (0 Bft)
11.06.2012 23:30 13,2 C 21,9 C 14,7 C 13,3 C 13,3 C 0,1 C 89 % 94 % 0 % 1003,9 hPa 0,0 l/m 0,0 km/h (0 Bft) N-NO 22 0 min 0,0 UV-I 11,4 C 13,3 C 0,0 km/h (0 Bft)
11.06.2012 23:35 13,2 C 21,9 C 14,8 C 13,4 C 13,4 C 0,2 C 89 % 94 % 0 % 1003,9 hPa 0,0 l/m 0,2 km/h (0 Bft) SW 225 0 min 0,0 UV-I 11,4 C 13,4 C 0,0 km/h (0 Bft)
11.06.2012 23:40 13,2 C 21,9 C 14,8 C 13,4 C 13,4 C 0,2 C 89 % 94 % 0 % 1003,9 hPa 0,0 l/m 0,2 km/h (0 Bft) S 180 0 min 0,0 UV-I 11,4 C 13,4 C 0,0 km/h (0 Bft)
11.06.2012 23:45 13,2 C 21,8 C 14,8 C 13,5 C 13,5 C 0,3 C 89 % 94 % 0 % 1004,2 hPa 0,0 l/m 0,0 km/h (0 Bft) W-NW 292 0 min 0,0 UV-I 11,4 C 13,5 C 0,0 km/h (0 Bft)
11.06.2012 23:50 13,2 C 21,8 C 14,8 C 13,5 C 13,5 C 0,3 C 89 % 94 % 0 % 1004,2 hPa 0,0 l/m 0,0 km/h (0 Bft) W 270 0 min 0,0 UV-I 11,4 C 13,5 C 0,0 km/h (0 Bft)
11.06.2012 23:55 13,3 C 21,9 C 14,8 C 13,4 C 13,4 C 0,1 C 89 % 94 % 0 % 1004,2 hPa 0,0 l/m 0,0 km/h (0 Bft) SO 135 0 min 0,0 UV-I 11,5 C 13,4 C 0,0 km/h (0 Bft)
_ Min-Zeit 04:41 00:00 05:35 02:35 02:35 00:00 12:55 14:45 00:00 23:25 - 00:00 - - - 00:00 10:55 02:35 00:00
Minimum _ 11,8 C 20,0 C 13,9 C 11,9 C 11,8 C 0,0 C 52 % 84 % 0 % 1003,9 hPa - 0,0 km/h (0 Bft) - - - 0,0 UV-I 8,6 C 11,8 C 0,0 km/h (0 Bft)
_ Max-Zeit 12:55 18:55 14:50 12:55 12:55 10:29 06:45 05:40 10:15 00:00 19:12 10:40 - - 10:15 00:00 10:15 12:55 11:45
Maximum _ 20,6 C 22,1 C 17,5 C 27,4 C 27,4 C 8,4 C 89 % 94 % 100 % 1009,1 hPa 0,7 l/m 6,0 km/h
O-NO (2 Bft)
- - 15 min 0,0 UV-I 12,8 C 27,4 C 11,7 km/h
O-NO (2 Bft)
Durchschnitt _ 15,2 C 20,6 C 15,3 C 16,6 C 16,5 C 1,4 C 76 % 91 % 31 % 1006,3 hPa #2,1 l/m 1,0 km/h (0 Bft) O-NO - #4:54 h 0,0 UV-I 10,8 C 16,5 C 1,4 km/h (1 Bft)
2012 www.wetterstation-wechselburg.de